User: anonymous   Login
Location: Unspecified
(0.0000°N, 0.0000°E)
Time: 00:59:02
(UTC+00:00)
Language:

STARLINK-31076 - Orbit

View from above orbital plane
View from above orbital plane
View from above satellite
View from above satellite

Ground track
Ground track

The orbit is defined by the following mean orbital elements,

1 58736U          26145.43813755 +.00000000 +00000-0 -22677-4 0 00005
2 58736  43.0027 146.1176 0001064 271.7583  88.3147 15.27571074    07
Epoch (UTC): 25 May 2026 10:30:55
Eccentricity: 0.0001064
inclination: 43.0027°
perigee height: 482 km
apogee height: 484 km
right ascension of ascending node: 146.1176°
argument of perigee: 271.7583°
revolutions per day: 15.27571074
mean anomaly at epoch: 88.3147°

The dashed part of the orbit path shows where the satellite is in the earth's shadow,  

DLR